Погода в Шымкенте

Погода в Шымкенте : погода сейчас, прогноз погоды и архив. Всё, что Вы хотите узнать о погоде в Шымкенте!

Поиск расширенной информации на нашем сайте:

Другие новости

Новости СМИ2

Главная страница сайта

Новости сайта

03.07.2017

Напоминаем, что на нашем специализированном сайте Метеоцентр.Азия вы можете получить высокодетализированные автоматические прогнозы погоды по пунктам России, СНГ и мира в авиационном формате (включающие направление и скорость ветра, видимость, явления погоды, количество и форму облачности, нижнюю и верхнюю границу облачности).

Рекомендуем: Заливка фундамента вручную в Калуге.

Погода в Шымкенте - сегодня

Время (UTC), дата Ветер
(°,м/с) 
Видим.   Явления Облачность Т
(°С)
Тd
(°С)
f(%) Тe
(°С)
Pmin
(гПа)
dP
(гПа)
Po
(мм)
O2
(г/м3)
Тmin Tmax R s Состояние
почвы
06 19.08.17 090 (В) 20000 м    4/0 верхняя 
[Ci ing]
+30.4 +8.6 26 +31  1008.6  0.1  707  255  +18         
09 19.08.17 030 (СВ) 20000 м    3/0 верхняя 
[Ci fib]
+31.4 +6.2 21 +31  1008  -0.4  707  254           
12 19.08.17 090 (В) 20000 м    8/0 средняя, верхняя 
[Ac trans|Ci ing]
+30.5 +8.5 25 +31  1008.7  0.5  707  255           
15 19.08.17 070 (В) н/о    9/6 600 м средняя, верхняя 
[Sc|Ac trans|Ci ing]
+26 +5.6 27 +26  1010.1  0.3  708  259    +32.5       
18 19.08.17 110 (В) н/о    9/6 600 м кучево-дожд., средняя, верхняя 
[Cb cap|Ac trans|Ci ing]
+24.2 +4 27 +24  1010.2  -0.3  700  258    +32.5       
21 19.08.17 090 (В) н/о    6/3 600 м средняя, верхняя 
[Sc|Ac trans|Ci fib]
+21.7 +5.8 36 +22  1010  -0.7  707  263           
00 20.08.17 100 (В) н/о    10/10 600 м 
[Sc]
+19.2 +7.7 47 +21  1010.6  0.2  707  265           
03 20.08.17 130 (ЮВ) 20000 м    8/6 600 м кучево-дожд., средняя 
[Cb cap|Ac trans]
+24.4 +6.4 31 +24  1010.4  0.8  708  261           
06 20.08.17 120 (ЮВ) 20000 м    8/3 600 м средняя, верхняя 
[Sc|Ac trans|Ci ing]
+29.6 +8.9 27 +30  1009.7  0.5  708  256  +18.6         
09 20.08.17 060 (СВ) 20000 м    3/1 600 м средняя 
[Cu med, cong|Ac trans]
+30.8 +7 23 +31  1009.5  708  255           
12 20.08.17 110 (В) 20000 м    1/1 600 м 
[Cu med, cong]
+31 +8.5 25 +31  1009.4  708  255           
15 20.08.17 080 (В) н/о    ясно 
+25.7 +7.1 31 +26  1011  0.3  708  260    +32.1       
18 20.08.17 060 (СВ) н/о    ясно 
+22.4 +5.5 33 +22  1012.2  0.4  708  263    +32.1       
21 20.08.17 060 (СВ) н/о    ясно 
+18.8 +4.1 38 +20  1012.4  -0.6  708  266           
00 21.08.17 050 (СВ) н/о    ясно 
+16.2 +5.6 49 +18  1012.4  -0.6  708  268           
03 21.08.17 100 (В) 20000 м    ясно 
+22.8 +5 31 +23  1011  0.1  708  262           
06 21.08.17 080 (В) 20000 м    ясно 
+30 +9.9 29 +32  1009.2  708  255  +15         
09 21.08.17 030 (СВ) 20000 м    1/1 600 м 
[Cu med, cong]
+31.5 +9.9 26 +34  1008.4  -0.4  707  254           
12 21.08.17 060 (СВ) 20000 м    1/1 600 м 
[Cu med, cong]
+29.8 +8.8 27 +31  1008  -0.7  707  255           
15 21.08.17 110 (В) н/о    ясно 
+24.8 +5.6 29 +25  1008.7  -0.6  706  260    +31.7       
18 21.08.17 080 (В) н/о    ясно 
+21.6 +4.5 33 +22  1008.8  -0.5  706  263    +31.7       
21 21.08.17 070 (В) н/о    ясно 
+19.2 +3.8 36 +20  1008.3  -1  705  265           
00 22.08.17 080 (В) н/о    ясно 
+17.6 +3.3 38 +18  1007.9  -0.2  705  266           
03 22.08.17 090 (В) 20000 м    ясно 
+24 +8.5 37 +24  1007.5  0.5  705  260           
06 22.08.17 060 (СВ) 20000 м    8/0 средняя, верхняя 
[Ac As|Ci fib]
+29.6 +7.8 26 +30  1006.5  0.3  706  255  +17         
Время (UTC), дата Ветер
(°,м/с) 
Видим.   Явления Облачность Т
(°С)
Тd
(°С)
f(%) Тe
(°С)
Pmin
(гПа)
dP
(гПа)
Po
(мм)
O2
(г/м3)
Тmin Tmax R s Состояние
почвы

Для получения пояснительной информации подведите курсор к названию столбца.

ПОГОДА в Шымкенте - архив

Всё, что Вы хотите узнать о погоде в Шымкенте - удобно и подробно!

Выберите нужную дату (начиная с 1 января 2015* года) и нажмите кнопку "Найти".
Будут отображены архивные сводки погоды по пункту Шымкент, начиная с указанной даты.


Отображать данные в формате CSV (для использования в таблицах Excel)


Внимание! Наш архив погоды предназначен исключительно для личного некоммерческого использования в познавательных целях. Если Вам необходимы официальные справки о состоянии погоды (для производственных, юридических, коммерческих и т.п. целей), обращайтесь в органы Росгидромета.

*Примечание: данная дата относится к архиву по метеостанциям СССР (Россия, СНГ, Балтия).
Архив по метеостанциям Зарубежной Европы и Азии (кроме Китая) хранится 10 дней, по другим регионам земного шара (Китай, Африка, Америка, Австралия, Океания) - 1 день.

Шымкент - район местоположения метеостанции


Название, широта, долгота, высота метеостанции:
Шымкент (город) 42.3°ш. 69.7°д. 604 м над ур. моря [Казахстан]

Дополнительная информация

В oтличие oт бoльшинства пoгoдных сайтoв мы публикуем пoдрoбную метеoинфoрмацию в детальнoм прoфессиoнальнoм фoрмате.

Характеристики температуры и влажнoсти вoздуха измеряются на высoте 2 м в тени вдали oт зданий и деревьев.
Скoрoсть ветра измеряется на высoте 10 м (на урoвне рoста челoвека скoрoсть ветра ниже в 1.5-2 раза). Если метеoстанция нахoдится в гoрoде или в лесу, тo скoрoсть ветра занижена на 2-4 м/с пo сравнению с oткрытым местoм. Скoрoсть ветра над акватoриями крупных рек и oзёр, а также на вершинах хoлмoв на 2-5 м/с выше, чем в oбычных услoвиях.
Атмoсфернoе давление в разных тoчках местнoсти мoжет значительнo oтличаться oт давления на метеoстанции, в зависимoсти oт услoвий рельефа (при пoдъёме на 10 м давление пoнижается примернo на 1 мм рт.ст.).